Location: Unspecified
(41.9031°N, 12.4386°E)
Time: 03:37:21
(UTC+02:00)

ISS - Pass Details

Date: 05 July 2020
Orbit: 417 x 421 km, 51.6° (Epoch: 08 July)

Event Time Altitude Azimuth Distance (km) Brightness Sun altitude
Exits shadow 04:09:50 - 284° (WNW) 1,714 -0.9 -13.7°
Reaches altitude 10° 04:10:30 10° 290° (WNW) 1,495 -1.2 -13.7°
Maximum altitude 04:13:10 22° 343° (NNW) 982 -1.5 -13.3°
Drops below altitude 10° 04:15:51 10° 36° (NE) 1,498 0.5 -13.0°
Sets 04:18:17 0° 53° (NE) 2,363 1.9 -12.7°
